Time,TemperatureF,DewpointF,PressureIn,WindDirection,WindDirectionDegrees,WindSpeedMPH,WindSpeedGustMPH,Humidity,HourlyPrecipIn,Conditions,Clouds,dailyrainin,SoftwareType,DateUTC
2013-04-23 00:02:00,36.0,36.0,30.03,NNE,20,27.0,36.0,100,-99.99,,,-99.99,,2013-04-23 05:02:00,
2013-04-23 00:12:00,36.0,36.0,30.03,NNE,20,27.0,36.0,100,-99.99,,,-99.99,,2013-04-23 05:12:00,
2013-04-23 00:22:00,36.0,36.0,30.03,NNE,20,27.0,36.0,100,-99.99,,,-99.99,,2013-04-23 05:22:00,
2013-04-23 00:32:00,36.0,36.0,30.03,NNE,20,27.0,36.0,100,-99.99,,,-99.99,,2013-04-23 05:32:00,
2013-04-23 08:11:00,32.0,30.0,30.12,North,360,13.0,-999.0,92,-99.99,,,-99.99,,2013-04-23 13:11:00,
2013-04-23 08:21:00,32.0,30.0,30.12,North,360,16.0,21.0,92,-99.99,,,-99.99,,2013-04-23 13:21:00,
2013-04-23 08:32:00,32.0,30.0,30.12,North,360,16.0,23.0,92,-99.99,,,-99.99,,2013-04-23 13:32:00,
2013-04-23 08:42:00,32.0,30.0,30.12,North,350,14.0,-999.0,92,-99.99,,,-99.99,,2013-04-23 13:42:00,
2013-04-23 08:52:00,32.0,30.0,30.13,North,360,16.0,21.0,92,-99.99,,,-99.99,,2013-04-23 13:52:00,
2013-04-23 09:01:00,32.0,30.0,30.13,North,360,16.0,21.0,92,-99.99,,,-99.99,,2013-04-23 14:01:00,
2013-04-23 09:11:00,32.0,30.0,30.14,North,360,17.0,24.0,92,-99.99,,,-99.99,,2013-04-23 14:11:00,
2013-04-23 09:22:00,32.0,30.0,30.14,North,360,15.0,22.0,92,-99.99,,,-99.99,,2013-04-23 14:22:00,
2013-04-23 09:32:00,32.0,30.0,30.15,North,350,16.0,22.0,92,-99.99,,,-99.99,,2013-04-23 14:32:00,
2013-04-23 09:42:00,32.0,30.0,30.15,North,360,14.0,22.0,92,-99.99,,,-99.99,,2013-04-23 14:42:00,
2013-04-23 09:52:00,32.0,30.0,30.15,North,350,20.0,23.0,92,-99.99,,,-99.99,,2013-04-23 14:52:00,
2013-04-23 10:01:00,32.0,30.0,30.15,North,350,20.0,23.0,92,-99.99,,,-99.99,,2013-04-23 15:01:00,
2013-04-23 10:12:00,32.0,30.0,30.16,North,360,16.0,24.0,92,-99.99,,,-99.99,,2013-04-23 15:12:00,
2013-04-23 10:21:00,32.0,30.0,30.16,North,360,16.0,20.0,92,-99.99,,,-99.99,,2013-04-23 15:21:00,
2013-04-23 10:32:00,32.0,30.0,30.16,North,350,16.0,22.0,92,-99.99,,,-99.99,,2013-04-23 15:32:00,
2013-04-23 10:42:00,32.0,30.0,30.16,North,350,16.0,-999.0,92,-99.99,,,-99.99,,2013-04-23 15:42:00,
2013-04-23 10:53:00,32.0,30.0,30.16,North,350,15.0,20.0,92,-99.99,,,-99.99,,2013-04-23 15:53:00,
2013-04-23 11:02:00,32.0,30.0,30.16,North,350,15.0,20.0,92,-99.99,,,-99.99,,2013-04-23 16:02:00,
2013-04-23 11:12:00,34.0,30.0,30.17,North,350,12.0,-999.0,86,-99.99,,,-99.99,,2013-04-23 16:12:00,
2013-04-23 11:23:00,32.0,30.0,30.18,North,350,16.0,-999.0,92,-99.99,,,-99.99,,2013-04-23 16:23:00,
2013-04-23 11:34:00,32.0,30.0,30.18,North,350,13.0,-999.0,92,-99.99,,,-99.99,,2013-04-23 16:34:00,
2013-04-23 11:42:00,32.0,30.0,30.18,North,350,15.0,-999.0,92,-99.99,,,-99.99,,2013-04-23 16:42:00,
2013-04-23 11:52:00,32.0,30.0,30.18,North,350,15.0,20.0,92,-99.99,,,-99.99,,2013-04-23 16:52:00,
2013-04-23 12:02:00,32.0,30.0,30.18,North,350,15.0,20.0,92,-99.99,,,-99.99,,2013-04-23 17:02:00,
2013-04-23 12:11:00,32.0,30.0,30.18,North,360,14.0,-999.0,92,-99.99,,,-99.99,,2013-04-23 17:11:00,
2013-04-23 12:22:00,32.0,30.0,30.18,North,350,16.0,-999.0,92,-99.99,,,-99.99,,2013-04-23 17:22:00,
2013-04-23 12:32:00,32.0,30.0,30.19,North,350,14.0,20.0,92,-99.99,,,-99.99,,2013-04-23 17:32:00,
2013-04-23 12:42:00,34.0,30.0,30.18,North,350,16.0,20.0,86,-99.99,,,-99.99,,2013-04-23 17:42:00,
2013-04-23 12:53:00,34.0,30.0,30.19,North,350,16.0,-999.0,86,-99.99,,,-99.99,,2013-04-23 17:53:00,
2013-04-23 13:02:00,34.0,30.0,30.19,North,350,16.0,-999.0,86,-99.99,,,-99.99,,2013-04-23 18:02:00,
2013-04-23 13:12:00,34.0,30.0,30.19,North,360,15.0,21.0,86,-99.99,,,-99.99,,2013-04-23 18:12:00,
2013-04-23 13:22:00,34.0,30.0,30.19,North,350,14.0,-999.0,86,-99.99,,,-99.99,,2013-04-23 18:22:00,
2013-04-23 13:32:00,34.0,30.0,30.19,NNW,340,14.0,18.0,86,-99.99,,,-99.99,,2013-04-23 18:32:00,
2013-04-23 13:42:00,34.0,30.0,30.19,NNW,340,15.0,20.0,86,-99.99,,,-99.99,,2013-04-23 18:42:00,
2013-04-23 13:52:00,34.0,30.0,30.19,NNW,340,15.0,-999.0,86,-99.99,,,-99.99,,2013-04-23 18:52:00,
2013-04-23 14:02:00,34.0,30.0,30.19,NNW,340,15.0,-999.0,86,-99.99,,,-99.99,,2013-04-23 19:02:00,
2013-04-23 14:11:00,34.0,30.0,30.18,NNW,340,14.0,-999.0,86,-99.99,,,-99.99,,2013-04-23 19:11:00,
2013-04-23 14:21:00,34.0,30.0,30.18,NNW,330,13.0,20.0,86,-99.99,,,-99.99,,2013-04-23 19:21:00,
2013-04-23 14:32:00,34.0,30.0,30.18,NNW,340,15.0,21.0,86,-99.99,,,-99.99,,2013-04-23 19:32:00,
2013-04-23 14:42:00,34.0,30.0,30.18,NNW,340,14.0,21.0,86,-99.99,,,-99.99,,2013-04-23 19:42:00,
2013-04-23 14:52:00,34.0,30.0,30.18,NNW,330,16.0,-999.0,86,-99.99,,,-99.99,,2013-04-23 19:52:00,
2013-04-23 15:01:00,34.0,30.0,30.18,NNW,330,16.0,-999.0,86,-99.99,,,-99.99,,2013-04-23 20:01:00,
2013-04-23 15:11:00,34.0,28.0,30.18,NNW,340,14.0,22.0,80,-99.99,,,-99.99,,2013-04-23 20:11:00,
2013-04-23 15:21:00,34.0,28.0,30.18,NNW,340,15.0,22.0,80,-99.99,,,-99.99,,2013-04-23 20:21:00,
2013-04-23 15:32:00,34.0,28.0,30.17,NNW,340,13.0,18.0,80,-99.99,,,-99.99,,2013-04-23 20:32:00,
2013-04-23 15:42:00,34.0,28.0,30.17,NNW,340,15.0,22.0,80,-99.99,,,-99.99,,2013-04-23 20:42:00,
2013-04-23 15:51:00,34.0,28.0,30.17,NNW,330,15.0,20.0,80,-99.99,,,-99.99,,2013-04-23 20:51:00,
2013-04-23 16:01:00,34.0,28.0,30.17,NNW,330,15.0,20.0,80,-99.99,,,-99.99,,2013-04-23 21:01:00,
2013-04-23 16:12:00,34.0,28.0,30.17,NNW,340,14.0,-999.0,80,-99.99,,,-99.99,,2013-04-23 21:12:00,
2013-04-23 16:21:00,34.0,28.0,30.17,NNW,340,14.0,21.0,80,-99.99,,,-99.99,,2013-04-23 21:21:00,
2013-04-23 16:33:00,34.0,28.0,30.17,NNW,340,13.0,21.0,80,-99.99,,,-99.99,,2013-04-23 21:33:00,
2013-04-23 16:43:00,34.0,28.0,30.17,NNW,340,16.0,-999.0,80,-99.99,,,-99.99,,2013-04-23 21:43:00,
2013-04-23 16:52:00,36.0,28.0,30.17,NNW,340,13.0,18.0,74,-99.99,,,-99.99,,2013-04-23 21:52:00,
2013-04-23 17:03:00,36.0,28.0,30.17,NNW,340,13.0,18.0,74,-99.99,,,-99.99,,2013-04-23 22:03:00,
2013-04-23 17:12:00,34.0,28.0,30.17,NNW,330,14.0,21.0,80,-99.99,,,-99.99,,2013-04-23 22:12:00,
2013-04-23 17:22:00,34.0,28.0,30.17,NNW,340,13.0,-999.0,80,-99.99,,,-99.99,,2013-04-23 22:22:00,
2013-04-23 17:33:00,36.0,28.0,30.17,NNW,340,12.0,-999.0,74,-99.99,,,-99.99,,2013-04-23 22:33:00,
2013-04-23 17:42:00,36.0,28.0,30.17,NNW,330,12.0,-999.0,74,-99.99,,,-99.99,,2013-04-23 22:42:00,
2013-04-23 17:52:00,36.0,28.0,30.17,NNW,340,14.0,17.0,74,-99.99,,,-99.99,,2013-04-23 22:52:00,
2013-04-23 18:03:00,36.0,28.0,30.17,NNW,340,14.0,17.0,74,-99.99,,,-99.99,,2013-04-23 23:03:00,
2013-04-23 18:12:00,36.0,28.0,30.17,NNW,340,13.0,-999.0,74,-99.99,,,-99.99,,2013-04-23 23:12:00,
2013-04-23 18:22:00,36.0,28.0,30.17,NNW,340,13.0,-999.0,74,-99.99,,,-99.99,,2013-04-23 23:22:00,
2013-04-23 18:32:00,36.0,28.0,30.17,NNW,340,14.0,17.0,74,-99.99,,,-99.99,,2013-04-23 23:32:00,
2013-04-23 18:42:00,36.0,28.0,30.17,NNW,340,13.0,17.0,74,-99.99,,,-99.99,,2013-04-23 23:42:00,
2013-04-23 18:52:00,36.0,28.0,30.17,NNW,340,14.0,-999.0,74,-99.99,,,-99.99,,2013-04-23 23:52:00,
2013-04-23 19:01:00,36.0,28.0,30.17,NNW,340,14.0,-999.0,74,-99.99,,,-99.99,,2013-04-24 00:01:00,
2013-04-23 19:11:00,36.0,28.0,30.17,North,350,10.0,-999.0,74,-99.99,,,-99.99,,2013-04-24 00:11:00,
2013-04-23 19:21:00,36.0,28.0,30.18,NNW,330,8.0,-999.0,74,-99.99,,,-99.99,,2013-04-24 00:21:00,
2013-04-23 19:32:00,36.0,28.0,30.19,NNW,330,10.0,-999.0,74,-99.99,,,-99.99,,2013-04-24 00:32:00,
2013-04-23 19:41:00,36.0,28.0,30.19,NNW,330,13.0,-999.0,74,-99.99,,,-99.99,,2013-04-24 00:41:00,
2013-04-23 19:52:00,34.0,27.0,30.20,NNW,330,13.0,17.0,74,-99.99,,,-99.99,,2013-04-24 00:52:00,
2013-04-23 20:01:00,34.0,27.0,30.20,NNW,330,13.0,17.0,74,-99.99,,,-99.99,,2013-04-24 01:01:00,
2013-04-23 20:11:00,34.0,27.0,30.20,NNW,330,15.0,-999.0,74,-99.99,,,-99.99,,2013-04-24 01:11:00,
2013-04-23 20:21:00,34.0,28.0,30.20,NNW,340,15.0,18.0,80,-99.99,,,-99.99,,2013-04-24 01:21:00,
2013-04-23 20:32:00,34.0,28.0,30.20,NNW,340,13.0,-999.0,80,-99.99,,,-99.99,,2013-04-24 01:32:00,
2013-04-23 20:42:00,34.0,28.0,30.21,NNW,330,14.0,-999.0,80,-99.99,,,-99.99,,2013-04-24 01:42:00,
2013-04-23 20:52:00,32.0,30.0,30.22,NNW,330,12.0,-999.0,92,-99.99,,,-99.99,,2013-04-24 01:52:00,
2013-04-23 21:02:00,32.0,30.0,30.22,NNW,330,12.0,-999.0,92,-99.99,,,-99.99,,2013-04-24 02:02:00,
2013-04-23 21:27:00,32.0,30.0,30.24,NNW,330,8.0,-999.0,92,-99.99,,,-99.99,,2013-04-24 02:27:00,
2013-04-23 21:37:00,32.0,30.0,30.24,NNW,330,5.0,-999.0,92,-99.99,,,-99.99,,2013-04-24 02:37:00,
2013-04-23 21:46:00,32.0,30.0,30.25,NNW,330,5.0,-999.0,92,-99.99,,,-99.99,,2013-04-24 02:46:00,
2013-04-23 21:55:00,32.0,30.0,30.25,NW,320,6.0,-999.0,92,-99.99,,,-99.99,,2013-04-24 02:55:00,
2013-04-23 22:07:00,32.0,30.0,30.25,NW,320,6.0,-999.0,92,-99.99,,,-99.99,,2013-04-24 03:07:00,
2013-04-23 22:14:00,32.0,30.0,30.27,NW,310,3.0,-999.0,92,-99.99,,,-99.99,,2013-04-24 03:14:00,
2013-04-23 22:27:00,34.0,30.0,30.26,NW,310,3.0,-999.0,86,-99.99,,,-99.99,,2013-04-24 03:27:00,
2013-04-23 22:38:00,34.0,30.0,30.25,North,0,0.0,-999.0,86,-99.99,,,-99.99,,2013-04-24 03:38:00,
2013-04-23 22:48:00,34.0,30.0,30.25,WNW,300,5.0,-999.0,86,-99.99,,,-99.99,,2013-04-24 03:48:00,
2013-04-23 22:55:00,34.0,30.0,30.26,WNW,300,6.0,-999.0,86,-99.99,,,-99.99,,2013-04-24 03:55:00,
2013-04-23 23:03:00,34.0,30.0,30.26,WNW,300,6.0,-999.0,86,-99.99,,,-99.99,,2013-04-24 04:03:00,
2013-04-23 23:12:00,34.0,30.0,30.25,WNW,300,3.0,-999.0,86,-99.99,,,-99.99,,2013-04-24 04:12:00,
2013-04-23 23:23:00,34.0,30.0,30.27,West,280,7.0,-999.0,86,-99.99,,,-99.99,,2013-04-24 04:23:00,
2013-04-23 23:33:00,34.0,30.0,30.27,West,270,7.0,-999.0,86,-99.99,,,-99.99,,2013-04-24 04:33:00,
2013-04-23 23:43:00,34.0,30.0,30.26,West,280,5.0,-999.0,86,-99.99,,,-99.99,,2013-04-24 04:43:00,
2013-04-23 23:52:00,32.0,30.0,30.26,West,280,5.0,-999.0,92,-99.99,,,-99.99,,2013-04-24 04:52:00,